sat.trackr.live / text

‹ back to catalog

STARLINK-30788

NORAD 58159 · 2023-166K

PAYLOAD ACTIVE UNKNOWN

§ Identity

Operator
Country
US
Launch date
2023-10-29
Launch site
AFWTR
Launch vehicle
Mass (kg)
RCS (m²)

Purposes: comms

External: N2YO · Heavens-Above · Gunter

§ Orbital elements

Epoch: 2026-05-25T04:44:54.057696Z

Period
94.01 min
Inclination
53.1604°
Eccentricity
0.0001070
Mean motion
15.31699193 rev/d
Perigee alt
470.0 km
Apogee alt
471.5 km
Semi-major
6,848.9 km
B*
3.0477e-5
RAAN
224.1966°
Arg perigee
103.5406°
Mean anomaly
256.5715°
Rev number
14,474

§ Raw data

STARLINK-307881 58159U 23166K   26145.19784789  .00000581  00000+0  30477-4 0  99952 58159  53.1604 224.1966 0001070 103.5406 256.5715 15.31699193144744

JSON: /api/v1/satellites/58159 · /tle

For live sub-satellite position, see the globe view (requires WebGL).

§ Visibility from observer

Set your observer location to see the next 7 days of passes ≥ 10°. The values pass through the URL so the page stays shareable.

No JS? Fill the form by hand. The geolocation button needs JavaScript.